JBU2631 TJSJ-TISX

Flight info

Callsign JBU2631
Flight time 0h 21m
Altitude 17000
Route SJU RTE2 COY
Aircraft A320/M-SDE3FGHIRWY/LB1

Departure

Time 2026-05-06 23:33
Airport Luis Munoz Marin International Airport (TJSJ)

Arrival

Time 2026-05-06 23:54
Airport Henry E. Rohlsen Airport (TISX)
Time Latitude Longitude Altitude Speed Heading
2026-05-06 22:51 18.43552 -66.00699 17 ft 0 kts 359°
2026-05-06 23:25 18.43531 -66.00698 20 ft 4 kts 356°
2026-05-06 23:25 18.43504 -66.00696 19 ft 4 kts 349°
2026-05-06 23:25 18.43479 -66.00688 18 ft 4 kts 327°
2026-05-06 23:25 18.43465 -66.00671 21 ft 2 kts 271°
2026-05-06 23:26 18.43465 -66.00665 20 ft 0 kts 270°
2026-05-06 23:28 18.43465 -66.00675 19 ft 3 kts 270°
2026-05-06 23:28 18.43467 -66.00732 17 ft 10 kts 270°
2026-05-06 23:28 18.43466 -66.00825 17 ft 16 kts 269°
2026-05-06 23:28 18.43466 -66.00948 17 ft 18 kts 272°
2026-05-06 23:29 18.43467 -66.01090 17 ft 21 kts 270°
2026-05-06 23:29 18.43467 -66.01251 17 ft 23 kts 269°
2026-05-06 23:29 18.43469 -66.01403 17 ft 17 kts 286°
2026-05-06 23:29 18.43580 -66.01436 17 ft 19 kts
2026-05-06 23:30 18.43718 -66.01436 17 ft 18 kts 354°
2026-05-06 23:30 18.43762 -66.01523 17 ft 14 kts 292°
2026-05-06 23:30 18.43844 -66.01556 17 ft 13 kts 30°
2026-05-06 23:30 18.43860 -66.01523 17 ft 1 kts 68°
2026-05-06 23:31 18.43861 -66.01522 17 ft 0 kts 68°
2026-05-06 23:32 18.43881 -66.01470 18 ft 30 kts 67°
2026-05-06 23:32 18.44067 -66.01015 19 ft 101 kts 66°
2026-05-06 23:32 18.44414 -66.00158 19 ft 151 kts 67°
2026-05-06 23:32 18.44862 -65.99056 339 ft 172 kts 69°
2026-05-06 23:33 18.45578 -65.97977 767 ft 195 kts 53°
2026-05-06 23:33 18.46548 -65.96870 1250 ft 215 kts 49°
2026-05-06 23:33 18.47623 -65.95684 1823 ft 232 kts 50°
2026-05-06 23:33 18.48706 -65.94355 2504 ft 245 kts 52°
2026-05-06 23:34 18.49849 -65.92962 3253 ft 258 kts 52°
2026-05-06 23:34 18.51051 -65.91500 4018 ft 269 kts 50°
2026-05-06 23:34 18.52304 -65.90008 4818 ft 274 kts 48°
2026-05-06 23:34 18.53603 -65.88519 5619 ft 278 kts 50°
2026-05-06 23:35 18.54511 -65.86726 6465 ft 282 kts 78°
2026-05-06 23:35 18.54510 -65.84664 7252 ft 285 kts 103°
2026-05-06 23:35 18.54013 -65.82666 8082 ft 287 kts 105°
2026-05-06 23:35 18.53490 -65.80615 8730 ft 292 kts 110°
2026-05-06 23:36 18.52491 -65.78760 8938 ft 293 kts 127°
2026-05-06 23:36 18.51256 -65.77051 8999 ft 293 kts 128°
2026-05-06 23:36 18.50018 -65.75352 9003 ft 292 kts 128°
2026-05-06 23:36 18.48781 -65.73654 9004 ft 292 kts 128°
2026-05-06 23:37 18.47548 -65.71953 9007 ft 291 kts 127°
2026-05-06 23:37 18.46320 -65.70256 9005 ft 291 kts 127°
2026-05-06 23:37 18.45093 -65.68562 9004 ft 291 kts 127°
2026-05-06 23:37 18.43869 -65.66868 9004 ft 291 kts 127°
2026-05-06 23:38 18.42645 -65.65175 9002 ft 290 kts 127°
2026-05-06 23:38 18.41440 -65.63501 9003 ft 290 kts 127°
2026-05-06 23:38 18.40221 -65.61810 9004 ft 291 kts 127°
2026-05-06 23:38 18.38994 -65.60112 9007 ft 291 kts 127°
2026-05-06 23:39 18.37766 -65.58415 9010 ft 291 kts 127°
2026-05-06 23:39 18.36540 -65.56719 9014 ft 291 kts 127°
2026-05-06 23:39 18.35313 -65.55022 9016 ft 291 kts 127°
2026-05-06 23:39 18.34087 -65.53325 9016 ft 291 kts 127°
2026-05-06 23:40 18.32857 -65.51626 9018 ft 291 kts 127°
2026-05-06 23:40 18.31631 -65.49935 9020 ft 291 kts 127°
2026-05-06 23:40 18.30400 -65.48241 9015 ft 291 kts 127°
2026-05-06 23:40 18.29133 -65.46580 9013 ft 291 kts 135°
2026-05-06 23:41 18.27538 -65.45279 9021 ft 291 kts 145°
2026-05-06 23:41 18.25858 -65.44090 9022 ft 291 kts 146°
2026-05-06 23:41 18.24173 -65.42907 9020 ft 291 kts 146°
2026-05-06 23:41 18.22485 -65.41725 9018 ft 291 kts 146°
2026-05-06 23:42 18.20821 -65.40559 9018 ft 292 kts 146°
2026-05-06 23:42 18.19131 -65.39380 9018 ft 292 kts 146°
2026-05-06 23:42 18.17440 -65.38200 9021 ft 292 kts 146°
2026-05-06 23:42 18.15750 -65.37020 9018 ft 292 kts 146°
2026-05-06 23:43 18.14060 -65.35839 9019 ft 292 kts 146°
2026-05-06 23:43 18.12368 -65.34657 9020 ft 292 kts 146°
2026-05-06 23:43 18.10678 -65.33474 8892 ft 293 kts 146°
2026-05-06 23:43 18.08994 -65.32301 8620 ft 289 kts 146°
2026-05-06 23:44 18.07325 -65.31140 8352 ft 286 kts 146°
2026-05-06 23:44 18.06228 -65.30376 8169 ft 285 kts 146°
2026-05-06 23:44 18.04047 -65.28859 7825 ft 282 kts 146°
2026-05-06 23:44 18.02415 -65.27729 7562 ft 280 kts 146°
2026-05-06 23:45 18.00799 -65.26615 7304 ft 277 kts 146°
2026-05-06 23:45 17.99194 -65.25505 7046 ft 276 kts 146°
2026-05-06 23:45 17.98113 -65.24760 6873 ft 273 kts 146°
2026-05-06 23:45 17.96556 -65.23687 6622 ft 270 kts 146°
2026-05-06 23:46 17.94986 -65.22600 6359 ft 269 kts 146°
2026-05-06 23:46 17.93426 -65.21521 6085 ft 269 kts 146°
2026-05-06 23:46 17.91863 -65.20432 5814 ft 270 kts 146°
2026-05-06 23:46 17.90304 -65.19354 5547 ft 266 kts 146°
2026-05-06 23:47 17.88758 -65.18284 5283 ft 266 kts 146°
2026-05-06 23:47 17.87212 -65.17213 5015 ft 265 kts 146°
2026-05-06 23:47 17.85682 -65.16160 4747 ft 261 kts 146°
2026-05-06 23:47 17.84165 -65.15120 4474 ft 260 kts 146°
2026-05-06 23:48 17.82650 -65.14089 4208 ft 259 kts 146°
2026-05-06 23:48 17.81133 -65.13066 3939 ft 259 kts 146°
2026-05-06 23:48 17.79616 -65.12054 3682 ft 259 kts 146°
2026-05-06 23:48 17.78115 -65.11061 3418 ft 257 kts 146°
2026-05-06 23:49 17.76601 -65.10062 3154 ft 257 kts 146°
2026-05-06 23:49 17.75082 -65.09069 2882 ft 258 kts 146°
2026-05-06 23:49 17.73595 -65.08017 2621 ft 257 kts 144°
2026-05-06 23:49 17.72091 -65.07022 2353 ft 254 kts 146°
2026-05-06 23:50 17.70585 -65.06055 2090 ft 254 kts 145°
2026-05-06 23:50 17.68365 -65.03310 1993 ft 250 kts 108°
2026-05-06 23:50 17.68027 -65.01564 1991 ft 247 kts 91°
2026-05-06 23:51 17.68157 -64.99760 1994 ft 250 kts 83°
2026-05-06 23:51 17.68349 -64.97931 2011 ft 252 kts 84°
2026-05-06 23:51 17.68537 -64.96110 2007 ft 251 kts 84°
2026-05-06 23:51 17.68723 -64.94292 2000 ft 251 kts 83°
2026-05-06 23:52 17.68909 -64.92458 1980 ft 252 kts 84°
2026-05-06 23:52 17.69092 -64.90657 1745 ft 242 kts 84°
2026-05-06 23:52 17.69261 -64.89004 1457 ft 214 kts 87°
2026-05-06 23:52 17.69395 -64.87536 1093 ft 192 kts 84°
2026-05-06 23:53 17.69539 -64.86175 939 ft 179 kts 83°
2026-05-06 23:53 17.69672 -64.84942 732 ft 167 kts 86°
2026-05-06 23:53 17.69792 -64.83789 585 ft 152 kts 86°
2026-05-06 23:53 17.69901 -64.82733 356 ft 141 kts 86°
2026-05-06 23:54 17.70001 -64.81742 148 ft 135 kts 86°
2026-05-06 23:54 17.70092 -64.80818 70 ft 111 kts 85°
2026-05-06 23:54 17.70146 -64.80303 71 ft 46 kts 83°
2026-05-06 23:54 17.70175 -64.79999 74 ft 35 kts 86°
2026-05-06 23:55 17.70123 -64.79799 74 ft 18 kts 112°
2026-05-06 23:55 17.70089 -64.79698 69 ft 15 kts 110°
2026-05-06 23:55 17.70085 -64.79584 77 ft 17 kts 81°
2026-05-06 23:55 17.70040 -64.79505 77 ft 9 kts 175°
2026-05-06 23:56 17.69983 -64.79540 75 ft 10 kts 248°
2026-05-06 23:56 17.69979 -64.79583 72 ft 1 kts 263°
2026-05-06 23:56 17.69978 -64.79586 71 ft 0 kts 264°